Spokane, WA
on Wednesday, December 26, 2012

Wednesday
Previous Day Next Day
Daily Summary
 ActualAverageRecord
Temperature
Mean Temperature °F 27°F  
Max Temperature 31°F 32°F 56°F (1980)
Min Temperature 25°F 22°F -8°F (1916)
Degree Days
Heating Degree Days 37 38  
Month to date heating degree days 831 977  
Since 1 July heating degree days 2216 2644  
Cooling Degree Days 0 0  
Month to date cooling degree days 0 0  
Year to date cooling degree days 535 450  
Moisture
Dew Point 28°F   
Average Humidity 93    
Maximum Humidity 100    
Minimum Humidity 85    
Precipitation
Precipitation 0.03 in 0.07 in 0.81 in (1958)
Month to date precipitation 2.54 1.97  
Year to date precipitation 21.28 16.23  
Snow
Snow 0.40 in 0.60 in 6.10 in (1964)
Month to date snowfall 17.4 12.0  
Since 1 July snowfall 23.3 19.5  
Snow Depth 5.00 in   
Wind
Wind Speed 4 mph   
Max Wind Speed 10 mph   
Max Gust Speed 13 mph   
Visibility 6 miles   
Events Fog , Snow   

Key: T is trace of precipitation, MM is missing value
Source: NWS Daily Summary
Time(PST)TemperatureDew PointHumidity Pressure Visibility Wind DirectionWind SpeedGust SpeedPrecipitationEvents Conditions
12:53 AM 30.0°F 28.9°F 96% 29.84 in 2.0 miles NE 6.9 mph - N/A   Overcast
1:53 AM 30.0°F 28.9°F 96% 29.83 in 2.0 miles ENE 9.2 mph - N/A   Overcast
2:41 AM 28.4°F 28.4°F 100% 29.77 in 0.5 miles ENE 6.9 mph - N/A   Overcast
2:53 AM 28.9°F 28.9°F 100% 29.83 in 0.5 miles NE 8.1 mph - 0.00 in Snow Light Snow
3:53 AM 28.9°F 28.9°F 100% 29.83 in 0.5 miles ENE 5.8 mph - 0.00 in Snow Light Snow
4:53 AM 28.9°F 28.0°F 96% 29.81 in 0.5 miles ENE 8.1 mph - 0.00 in Snow Light Snow
4:58 AM 28.4°F 28.4°F 100% 29.75 in 6.0 miles ENE 6.9 mph - 0.00 in Snow Light Snow
5:53 AM 28.9°F 27.0°F 92% 29.81 in 6.0 miles NE 9.2 mph - 0.00 in   Overcast
6:28 AM 28.4°F 28.4°F 100% 29.75 in 10.0 miles NE 5.8 mph - N/A   Overcast
6:53 AM 28.9°F 28.0°F 96% 29.81 in 10.0 miles ENE 5.8 mph - N/A   Overcast
7:53 AM 28.9°F 28.0°F 96% 29.81 in 8.0 miles NE 5.8 mph - N/A Fog Overcast
8:53 AM 28.9°F 28.0°F 96% 29.84 in 7.0 miles NE 3.5 mph - N/A Fog Patches of Fog
9:53 AM 28.9°F 28.0°F 96% 29.86 in 10.0 miles NE 4.6 mph - N/A   Overcast
10:53 AM 30.0°F 27.0°F 88% 29.85 in 10.0 miles NE 4.6 mph - N/A   Overcast
11:53 AM 30.0°F 27.0°F 88% 29.84 in 10.0 miles NE 6.9 mph - N/A   Overcast
12:53 PM 30.9°F 28.0°F 89% 29.83 in 10.0 miles NE 5.8 mph - N/A   Overcast
1:53 PM 30.9°F 28.0°F 89% 29.84 in 10.0 miles NNE 4.6 mph - N/A   Overcast
2:53 PM 30.9°F 28.0°F 89% 29.86 in 10.0 miles Calm Calm - N/A   Overcast
3:53 PM 30.9°F 28.0°F 89% 29.87 in 10.0 miles Calm Calm - N/A   Overcast
4:53 PM 30.0°F 28.0°F 92% 29.88 in 10.0 miles Calm Calm - N/A   Overcast
5:53 PM 30.0°F 28.0°F 92% 29.88 in 10.0 miles Calm Calm - N/A   Mostly Cloudy
6:53 PM 27.0°F 26.1°F 96% 29.90 in 7.0 miles WSW 3.5 mph - N/A   Mostly Cloudy
7:53 PM 27.0°F 25.0°F 92% 29.91 in 5.0 miles Calm Calm - 0.00 in Snow Light Snow
8:53 PM 26.1°F 26.1°F 100% 29.93 in 4.0 miles Calm Calm - 0.00 in Snow Light Snow
9:26 PM 28.4°F 26.6°F 93% 29.86 in 5.0 miles Calm Calm - 0.00 in Snow Light Snow
9:53 PM 28.0°F 27.0°F 96% 29.93 in 2.0 miles Calm Calm - 0.01 in Snow Light Snow
10:43 PM 28.4°F 28.4°F 100% 29.88 in 1.0 miles Calm Calm - 0.00 in Snow Light Snow
10:53 PM 28.9°F 28.0°F 96% 29.94 in 1.0 miles Calm Calm - 0.01 in Snow Light Snow
11:53 PM 28.9°F 28.0°F 96% 29.95 in 1.5 miles South 3.5 mph - 0.01 in Snow Light Snow
Moon Phase
Dec. 26 Dec. 28 Jan. 04 Jan. 11 Jan. 18
Sunrise:07:37 AM (PST) Moon Rise:03:03 PM (PST)12/26
Sunset:04:04 PM (PST) Moon Set:06:02 AM (PST)12/26

Copyright © 2014 The Weather Underground, Inc.